Flag for U.S.A. Weather past 2 weeks in Leesburg, Virginia, U.S.A.

Now
72 °F

Passing clouds.


Feels Like: 65 °F
Forecast: 71 / 92 °F
Wind: No wind

Location: Leesburg / Godfrey

Current Time: Jul 23, 2014 at 6:40:46 AM

Latest Report: Jul 23, 2014 at 5:15 AM


Visibility: 10 mi

Pressure: 30.01 "Hg

Humidity: 100%

Dew point: 72 °F

Location of LeesburgLocation

Historic Weather in Leesburg — Graph

°F

Leesburg temperature yesterday

Maximum temperature yesterday: 82 °F (at 12:15 PM)
Minimum temperature yesterday: 72 °F (at 1:35 AM)
Average temperature yesterday: 75 °F

Past Weeks' High & Low Weather Summary

 TemperatureHumidityPressure
High93 °F (Jul 8, 2:15 PM)100% (Jul 8, 6:55 PM)30.27 "Hg (Jul 8, 6:55 PM)
Low57 °F (Jul 18, 6:15 AM)40% (Jul 10, 3:35 PM)29.74 "Hg (Jul 8, 4:35 PM)
Average75 °F79%30.06 "Hg
* Reported Jul 8 5:15 AM — Jul 23 5:15 AM, Leesburg, Weather by CustomWeather, © 2014

Note: Actual official high and low records may vary slightly from our data, if they occured in-between our weather recording intervals... More about our weather records

Advertising

Leesburg weather history for previous 24 hours

 ConditionsComfort  
Time TempWeatherWind HumidityBarometerVisibility
5:15 AM
Jul 23
72 °FPassing clouds.No wind100%30.01 "Hg10 mi
1:55 AM73 °FClear.3 mph94%30.06 "Hg10 mi
1:15 AM73 °FClear.No wind94%30.07 "Hg10 mi
12:55 AM73 °FClear.No wind94%30.07 "Hg10 mi
12:15 AM73 °FClear.5 mph94%30.08 "Hg10 mi
11:55 PM
Jul 22
77 °FClear.5 mph83%30.08 "Hg10 mi
11:15 PM77 °FClear.7 mph89%30.09 "Hg10 mi
10:55 PM77 °FClear.5 mph89%30.10 "Hg10 mi
10:35 PM77 °FClear.3 mph89%30.10 "Hg10 mi
10:15 PM79 °FClear.3 mph84%30.10 "Hg10 mi
9:55 PM79 °FClear.6 mph84%30.10 "Hg10 mi
9:35 PM81 °FClear.10 mph79%30.09 "Hg10 mi
9:15 PM81 °FSunny.7 mph79%30.10 "Hg10 mi
8:55 PM81 °FSunny.6 mph79%30.10 "Hg10 mi
8:35 PM81 °FSunny.7 mph79%30.09 "Hg10 mi
7:55 PM82 °FSunny.7 mph74%30.08 "Hg10 mi
12:55 PM82 °FMore clouds than sun.8 mph70%30.18 "Hg10 mi
12:15 PM82 °FCloudy.7 mph70%30.18 "Hg10 mi
11:55 AM81 °FPartly sunny.8 mph74%30.19 "Hg10 mi
11:35 AM79 °FMostly cloudy.5 mph84%30.19 "Hg10 mi
11:15 AM77 °FOvercast.5 mph89%30.20 "Hg10 mi
10:55 AM77 °FOvercast.6 mph89%30.20 "Hg10 mi
10:15 AM77 °FOvercast.6 mph89%30.21 "Hg10 mi
9:55 AM75 °FMostly cloudy.3 mph94%30.21 "Hg10 mi
9:35 AM73 °FLow clouds.5 mph94%30.21 "Hg10 mi
9:15 AM73 °FLow clouds.7 mph94%30.21 "Hg10 mi
8:55 AM73 °FLow clouds.7 mph94%30.21 "Hg10 mi
8:35 AM73 °FLow clouds.3 mph94%30.21 "Hg10 mi
8:15 AM73 °FLow clouds.3 mph100%30.21 "Hg10 mi
7:55 AM73 °FLow clouds.No wind100%30.21 "Hg10 mi
7:35 AM73 °FLow clouds.No wind100%30.20 "Hg10 mi
6:15 AM72 °FPassing clouds.No wind100%30.18 "Hg10 mi
Weather by CustomWeather, © 2014

See weather overviewHow to use our weather pages